Torna al catalogo

STARLINK-30987

AttivoComunicazioniVLEO
NORAD 58487·PAYLOAD·🇺🇸 United States

Lanciato Dec 3, 2023 da Cape Canaveral Space Force Station

Loading…

Prossimi Passaggi (prossime 24 ore)

TLE

AggiornatoSource: CelesTrak SupGP

Epoca: Sep 14, 2026, 20:52 UTC

1 58487C 23186Q   26257.86993056  .00005583  00000+0  20229-3 0  2575
2 58487  43.0000  75.4183 0001437 273.6923 206.8267 15.27563245    18

Traccia STARLINK-30987 in tempo reale con AllMySat

Download on the App Store